When you browse on this site, cookies collect data to enhance your experience and personalize the content and advertising you see.
Visit our Privacy Policy to learn more. By continuing to use the site, you agree to this use of cookies and data.
  • En España
  • Lista de países
  • Para 7 días
  • Temperatura del agua
  • El tiempo en el mapa
  • Informadores
  • user-avatar
    Iniciar sesión

    Tiempo cada hora Maidstone

    Hoy, 22 Septiembre, Domingo

    Tiempo Temperatura Precipitaciones Viento Presión Humedad
    00:00 +19°C° 0 mm 3 mps 752 mmHg 72%
    01:00 +19°C° 0.1 mm 3 mps 752 mmHg 74%
    02:00 +18°C° 0.1 mm 3 mps 751 mmHg 76%
    03:00 +18°C° 0.1 mm 3 mps 751 mmHg 78%
    04:00 +18°C° 0.3 mm 3 mps 751 mmHg 80%
    05:00 +18°C° 0.3 mm 3 mps 751 mmHg 81%
    06:00 +19°C° 0.3 mm 4 mps 751 mmHg 83%
    07:00 +20°C° 0.2 mm 4 mps 751 mmHg 81%
    08:00 +21°C° 0.2 mm 5 mps 750 mmHg 80%
    09:00 +21°C° 0.2 mm 5 mps 750 mmHg 78%
    10:00 +21°C° 0.1 mm 5 mps 750 mmHg 79%
    11:00 +21°C° 0.1 mm 4 mps 750 mmHg 80%
    12:00 +20°C° 0.1 mm 4 mps 750 mmHg 81%
    13:00 +20°C° 1.8 mm 4 mps 751 mmHg 84%
    14:00 +19°C° 1.8 mm 4 mps 751 mmHg 86%
    15:00 +18°C° 1.8 mm 4 mps 751 mmHg 89%
    16:00 +17°C° 0 mm 4 mps 751 mmHg 88%
    17:00 +17°C° 0 mm 4 mps 751 mmHg 87%
    18:00 +17°C° 0 mm 3 mps 751 mmHg 86%
    19:00 +17°C° 0 mm 3 mps 752 mmHg 86%
    20:00 +16°C° 0 mm 3 mps 752 mmHg 86%
    21:00 +16°C° 0 mm 3 mps 752 mmHg 86%
    22:00 +15°C° 0 mm 4 mps 753 mmHg 87%
    23:00 +15°C° 0 mm 4 mps 753 mmHg 89%

    Mañana, 23 Septiembre, Lunes

    Tiempo Temperatura Precipitaciones Viento Presión Humedad
    00:00 +14°C° 0 mm 4 mps 753 mmHg 90%
    01:00 +14°C° 0 mm 4 mps 753 mmHg 91%
    02:00 +13°C° 0 mm 4 mps 754 mmHg 92%
    03:00 +13°C° 0 mm 4 mps 754 mmHg 93%
    04:00 +13°C° 0 mm 4 mps 754 mmHg 92%
    05:00 +12°C° 0 mm 5 mps 755 mmHg 92%
    06:00 +12°C° 0 mm 5 mps 755 mmHg 91%
    07:00 +14°C° 0 mm 5 mps 756 mmHg 84%
    08:00 +15°C° 0 mm 5 mps 756 mmHg 77%
    09:00 +17°C° 0 mm 6 mps 756 mmHg 70%
    10:00 +17°C° 0.1 mm 6 mps 757 mmHg 66%
    11:00 +19°C° 0.1 mm 6 mps 757 mmHg 62%
    12:00 +20°C° 0.1 mm 6 mps 757 mmHg 58%
    13:00 +20°C° 0 mm 6 mps 757 mmHg 59%
    14:00 +20°C° 0 mm 6 mps 757 mmHg 61%
    15:00 +20°C° 0 mm 7 mps 756 mmHg 62%
    16:00 +19°C° 0 mm 6 mps 756 mmHg 65%
    17:00 +17°C° 0 mm 5 mps 756 mmHg 69%
    18:00 +17°C° 0 mm 4 mps 756 mmHg 72%
    19:00 +16°C° 0.5 mm 5 mps 755 mmHg 77%
    20:00 +15°C° 0.5 mm 6 mps 755 mmHg 83%
    21:00 +15°C° 0.5 mm 7 mps 755 mmHg 88%
    22:00 +15°C° 0.5 mm 7 mps 755 mmHg 89%
    23:00 +15°C° 0.5 mm 7 mps 754 mmHg 90%

    Pasado mañana, 24 Septiembre, Martes

    Tiempo Temperatura Precipitaciones Viento Presión Humedad
    00:00 +16°C° 0.5 mm 7 mps 754 mmHg 91%
    01:00 +16°C° 0.1 mm 7 mps 753 mmHg 91%
    02:00 +16°C° 0.1 mm 7 mps 753 mmHg 91%
    03:00 +16°C° 0.1 mm 6 mps 752 mmHg 91%
    04:00 +16°C° 0.3 mm 6 mps 752 mmHg 91%
    05:00 +16°C° 0.3 mm 6 mps 751 mmHg 91%
    06:00 +16°C° 0.3 mm 6 mps 750 mmHg 91%
    07:00 +16°C° 0.9 mm 7 mps 750 mmHg 91%
    08:00 +16°C° 0.9 mm 8 mps 749 mmHg 91%
    09:00 +16°C° 0.9 mm 9 mps 749 mmHg 91%
    10:00 +16°C° 1.4 mm 8 mps 749 mmHg 87%
    11:00 +17°C° 1.4 mm 7 mps 748 mmHg 83%
    12:00 +17°C° 1.4 mm 7 mps 748 mmHg 78%
    13:00 +18°C° 0.2 mm 7 mps 748 mmHg 74%
    14:00 +18°C° 0.2 mm 7 mps 748 mmHg 70%
    15:00 +20°C° 0.2 mm 7 mps 748 mmHg 66%
    16:00 +18°C° 0 mm 7 mps 748 mmHg 71%
    17:00 +17°C° 0 mm 6 mps 749 mmHg 75%
    18:00 +16°C° 0 mm 6 mps 749 mmHg 80%
    19:00 +15°C° 0.1 mm 6 mps 749 mmHg 82%
    20:00 +15°C° 0.1 mm 6 mps 749 mmHg 84%
    21:00 +15°C° 0.1 mm 5 mps 750 mmHg 85%
    22:00 +15°C° 0.1 mm 6 mps 749 mmHg 86%
    23:00 +15°C° 0.1 mm 6 mps 749 mmHg 86%

    25 Septiembre, Miércoles

    Tiempo Temperatura Precipitaciones Viento Presión Humedad
    00:00 +14°C° 0.1 mm 6 mps 749 mmHg 86%
    01:00 +14°C° 0.4 mm 6 mps 749 mmHg 87%
    02:00 +14°C° 0.4 mm 6 mps 749 mmHg 89%
    03:00 +14°C° 0.4 mm 6 mps 749 mmHg 90%
    04:00 +14°C° 0.5 mm 6 mps 748 mmHg 89%
    05:00 +14°C° 0.5 mm 6 mps 748 mmHg 88%
    06:00 +14°C° 0.5 mm 6 mps 748 mmHg 87%
    07:00 +14°C° 0.5 mm 6 mps 748 mmHg 88%
    08:00 +14°C° 0.5 mm 7 mps 749 mmHg 88%
    09:00 +13°C° 0.5 mm 8 mps 749 mmHg 89%
    10:00 +15°C° 0.2 mm 7 mps 749 mmHg 85%
    11:00 +16°C° 0.2 mm 7 mps 750 mmHg 81%
    12:00 +17°C° 0.2 mm 7 mps 750 mmHg 76%
    13:00 +17°C° 0 mm 7 mps 750 mmHg 77%
    14:00 +17°C° 0 mm 7 mps 750 mmHg 77%
    15:00 +17°C° 0 mm 6 mps 750 mmHg 78%
    16:00 +17°C° 0 mm 6 mps 750 mmHg 80%
    17:00 +16°C° 0 mm 5 mps 750 mmHg 82%
    18:00 +17°C° 0 mm 4 mps 751 mmHg 83%
    19:00 +16°C° 0.1 mm 5 mps 751 mmHg 86%
    20:00 +16°C° 0.1 mm 5 mps 751 mmHg 89%
    21:00 +16°C° 0.1 mm 5 mps 751 mmHg 92%
    22:00 +16°C° 0.8 mm 5 mps 751 mmHg 93%
    23:00 +16°C° 0.8 mm 6 mps 750 mmHg 93%

    26 Septiembre, Jueves

    Tiempo Temperatura Precipitaciones Viento Presión Humedad
    00:00 +17°C° 0.8 mm 6 mps 750 mmHg 94%
    01:00 +17°C° 0.3 mm 6 mps 750 mmHg 91%
    02:00 +16°C° 0.3 mm 7 mps 750 mmHg 88%
    03:00 +16°C° 0.3 mm 7 mps 750 mmHg 85%
    04:00 +16°C° 0 mm 7 mps 750 mmHg 85%
    05:00 +16°C° 0 mm 7 mps 750 mmHg 85%
    06:00 +16°C° 0 mm 7 mps 750 mmHg 86%
    07:00 +16°C° 0.6 mm 8 mps 750 mmHg 87%
    08:00 +16°C° 0.6 mm 8 mps 750 mmHg 88%
    09:00 +16°C° 0.6 mm 8 mps 751 mmHg 89%
    10:00 +16°C° 0.6 mm 8 mps 751 mmHg 89%
    11:00 +16°C° 0.6 mm 8 mps 750 mmHg 89%
    12:00 +16°C° 0.6 mm 9 mps 750 mmHg 88%
    13:00 +16°C° 0.3 mm 8 mps 750 mmHg 86%
    14:00 +16°C° 0.3 mm 8 mps 750 mmHg 83%
    15:00 +16°C° 0.3 mm 7 mps 750 mmHg 80%
    16:00 +15°C° 0.1 mm 7 mps 750 mmHg 80%
    17:00 +15°C° 0.1 mm 6 mps 750 mmHg 79%
    18:00 +14°C° 0.1 mm 6 mps 750 mmHg 78%
    19:00 +14°C° 0 mm 6 mps 751 mmHg 80%
    20:00 +14°C° 0 mm 6 mps 751 mmHg 82%
    21:00 +14°C° 0 mm 5 mps 751 mmHg 84%
    22:00 +13°C° 0.1 mm 5 mps 751 mmHg 84%
    23:00 +13°C° 0.1 mm 5 mps 751 mmHg 85%

    27 Septiembre, Viernes

    Tiempo Temperatura Precipitaciones Viento Presión Humedad
    00:00 +12°C° 0.1 mm 4 mps 751 mmHg 86%
    01:00 +13°C° 0.1 mm 5 mps 751 mmHg 86%
    02:00 +13°C° 0.1 mm 5 mps 751 mmHg 86%
    03:00 +13°C° 0.1 mm 5 mps 751 mmHg 86%
    04:00 +13°C° 0.1 mm 5 mps 751 mmHg 87%
    05:00 +13°C° 0.1 mm 5 mps 751 mmHg 87%
    06:00 +12°C° 0.1 mm 5 mps 751 mmHg 87%
    07:00 +13°C° 0.2 mm 5 mps 751 mmHg 83%
    08:00 +14°C° 0.2 mm 6 mps 751 mmHg 79%
    09:00 +15°C° 0.2 mm 6 mps 752 mmHg 74%
    10:00 +16°C° 0.2 mm 7 mps 752 mmHg 71%
    11:00 +16°C° 0.2 mm 7 mps 752 mmHg 68%
    12:00 +17°C° 0.2 mm 8 mps 752 mmHg 65%
    13:00 +17°C° 0.1 mm 8 mps 752 mmHg 65%
    14:00 +16°C° 0.1 mm 8 mps 752 mmHg 66%
    15:00 +16°C° 0.1 mm 7 mps 751 mmHg 66%
    16:00 +15°C° 0 mm 7 mps 752 mmHg 69%
    17:00 +15°C° 0 mm 6 mps 752 mmHg 73%
    18:00 +14°C° 0 mm 6 mps 752 mmHg 76%
    19:00 +14°C° 0 mm 6 mps 752 mmHg 78%
    20:00 +14°C° 0 mm 6 mps 752 mmHg 80%
    21:00 +13°C° 0 mm 6 mps 753 mmHg 81%
    22:00 +13°C° 0.1 mm 6 mps 752 mmHg 82%
    23:00 +13°C° 0.1 mm 6 mps 752 mmHg 83%
    Mostrar más